Quincy, IL

10:40 PM CDT on July 22, 2017 (GMT -0500)
Quincy Regional-Baldwin

Weather History for KUIN - May, 2013

Change the Weather History Date:

Sunday, May 19, 2013

  Actual Average Record
Temperature  
Mean Temperature 78 °F 64 °F  
Max Temperature 88 °F 74 °F 90 °F (1962)
Min Temperature 68 °F 54 °F 41 °F (1929)
Degree Days  
Heating Degree Days 0 4  
Month to date heating degree days 121 104  
Since 1 July heating degree days 5606 5534  
Cooling Degree Days 13 2  
Month to date cooling degree days 59 28  
Year to date cooling degree days 73 46  
Growing Degree Days 28 (Base 50)    
Moisture  
Dew Point 66 °F    
Average Humidity 72    
Maximum Humidity 90    
Minimum Humidity 54    
Precipitation  
Precipitation 0.15 in 0.15 in 1.96 in (2017)
Month to date precipitation 2.98 2.68  
Year to date precipitation 16.83 12.23  
Sea Level Pressure  
Sea Level Pressure 29.78 in    
Wind  
Wind Speed 11 mph (SSE)    
Max Wind Speed 20 mph    
Max Gust Speed 28 mph    
Visibility 8 miles    
Events Rain , Thunderstorm    
T = Trace of Precipitation, MM = Missing Value Source: NWS Daily Summary

Daily Weather History Graph

Daily Weather History Graph

Search for Another Location

Airport or City:

Trip Planner

Search our weather history database for the weather conditions in past years. The results will help you decide how hot, cold, wet, or windy it might be!

Date:

Astronomy

May. 19, 2013 Rise Set
Actual Time 5:45 AM CDT 8:17 PM CDT
Civil Twilight 5:14 AM CDT 8:48 PM CDT
Nautical Twilight 4:36 AM CDT 9:26 PM CDT
Astronomical Twilight 3:53 AM CDT 10:10 PM CDT
Moon 2:21 PM CDT (5/19) 2:09 AM CDT (5/19)
Length of Visible Light 15h 33m
Length of Day
14h 31m
Waxing Gibbous, 65% of the Moon is Illuminated
May 19
Waxing Gibbous
May 24
Full
May 31
Last Quarter
Jun 8
New
Jun 16
First Quarter

Hourly Weather History & Observations

Time (CDT) Temp. Heat Index Dew Point Humidity Pressure Visibility Wind Dir Wind Speed Gust Speed Precip Events Conditions
12:54 AM 71.1 °F - 62.1 °F 73% 29.85 in 10.0 mi SE 11.5 mph - N/A   Partly Cloudy
1:54 AM 71.1 °F - 63.0 °F 75% 29.86 in 10.0 mi SSE 9.2 mph - N/A   Scattered Clouds
2:42 AM 71.6 °F - 62.6 °F 73% 29.86 in 10.0 mi SSE 10.4 mph - N/A   Overcast
2:54 AM 71.1 °F - 63.0 °F 75% 29.85 in 10.0 mi SSE 8.1 mph - N/A   Overcast
3:23 AM 71.6 °F - 62.6 °F 73% 29.88 in 10.0 mi SSE 8.1 mph - N/A   Overcast
3:54 AM 71.1 °F - 63.0 °F 75% 29.86 in 10.0 mi SSE 8.1 mph - N/A   Overcast
4:54 AM 70.0 °F - 63.0 °F 78% 29.82 in 10.0 mi SSE 9.2 mph - N/A   Clear
5:54 AM 70.0 °F - 63.0 °F 78% 29.82 in 10.0 mi SSE 9.2 mph - N/A   Scattered Clouds
6:54 AM 69.8 °F - 64.4 °F 83% 29.83 in 9.0 mi SE 6.9 mph - N/A   Clear
7:54 AM 71.1 °F - 64.9 °F 81% 29.82 in 8.0 mi SSE 8.1 mph - N/A   Clear
8:54 AM 73.0 °F - 66.0 °F 79% 29.83 in 8.0 mi South 6.9 mph - N/A   Clear
9:47 AM 75.2 °F - 66.2 °F 73% 29.87 in 7.0 mi South 15.0 mph - N/A   Mostly Cloudy
9:54 AM 75.9 °F - 68.0 °F 76% 29.86 in 7.0 mi South 11.5 mph - N/A   Scattered Clouds
10:28 AM 77.0 °F - 69.8 °F 78% 29.87 in 7.0 mi SSW 15.0 mph - N/A Thunderstorm Mostly Cloudy
10:41 AM 75.2 °F - 69.8 °F 83% 29.88 in 1.8 mi SW 15.0 mph - 0.08 in Rain , Thunderstorm Heavy Thunderstorms and Rain
10:54 AM 72.0 °F - 64.9 °F 78% 29.85 in 4.0 mi South 6.9 mph - 0.15 in Rain , Thunderstorm Light Thunderstorms and Rain
11:46 AM 69.8 °F - 64.4 °F 83% 29.82 in 10.0 mi East 13.8 mph 24.2 mph 0.00 in   Clear
11:54 AM 70.0 °F - 66.0 °F 87% 29.80 in 9.0 mi ESE 13.8 mph - 0.00 in   Clear
12:54 PM 72.0 °F - 68.0 °F 87% 29.77 in 7.0 mi SE 11.5 mph - N/A   Clear
1:54 PM 80.6 °F 84.6 °F 71.6 °F 74% 29.76 in 8.0 mi SE 16.1 mph - N/A   Clear
2:54 PM 84.2 °F 89.6 °F 71.6 °F 66% 29.73 in 7.0 mi SSE 15.0 mph 23.0 mph N/A   Scattered Clouds
3:54 PM 87.1 °F 91.3 °F 69.1 °F 55% 29.70 in 8.0 mi South 13.8 mph 25.3 mph N/A   Partly Cloudy
4:54 PM 87.1 °F 91.3 °F 69.1 °F 55% 29.65 in 8.0 mi SSE 18.4 mph 26.5 mph N/A   Clear
5:54 PM 86.0 °F 90.1 °F 69.1 °F 57% 29.65 in 8.0 mi SSE 13.8 mph 20.7 mph N/A   Partly Cloudy
6:54 PM 84.9 °F 88.8 °F 69.1 °F 59% 29.63 in 8.0 mi SSE 10.4 mph 23.0 mph N/A   Clear
7:54 PM 82.9 °F 85.8 °F 68.0 °F 60% 29.65 in 8.0 mi SSE 8.1 mph - N/A   Clear
8:54 PM 82.0 °F 83.4 °F 64.0 °F 54% 29.64 in 10.0 mi SSE 11.5 mph 18.4 mph N/A   Clear
9:54 PM 81.0 °F 82.2 °F 63.0 °F 54% 29.68 in 10.0 mi South 13.8 mph 20.7 mph N/A   Clear
10:54 PM 80.6 °F 81.8 °F 62.6 °F 54% 29.73 in 10.0 mi South 17.3 mph 24.2 mph N/A   Mostly Cloudy
11:24 PM 73.4 °F - 60.8 °F 65% 29.74 in 10.0 mi West 9.2 mph 21.9 mph N/A   Mostly Cloudy
11:54 PM 71.1 °F - 61.0 °F 70% 29.72 in 10.0 mi West 3.5 mph - N/A   Partly Cloudy